Location: ??????
(38.1303°N, 24.0039°E)
Time: 08:26:14
(UTC+00:00)

BREEZE-M DEB (TANK) - Pass Details

Date: 20 June 2021
Orbit: 431 x 13231 km, 46.0° (Epoch: 30 July)

Event Time Altitude Azimuth Distance (km) Brightness Sun altitude
Exits shadow 01:14:57 25° 200° (SSW) 1,590 4.6 -16.7°
Maximum altitude 01:17:06 38° 150° (SSE) 958 3.8 -16.5°
Drops below altitude 10° 01:20:03 10° 79° (ENE) 1,628 6.0 -16.1°
Sets 01:21:44 0° 69° (ENE) 2,404 7.2 -15.9°
